TimeEST,TemperatureF,Dew PointF,Humidity,Sea Level PressureIn,VisibilityMPH,Wind Direction,Wind SpeedMPH,Gust SpeedMPH,PrecipitationIn,Events,Conditions,WindDirDegrees,DateUTC
12:53 AM,55.0,32.0,42,30.25,10.0,South,10.4,-,N/A,,Clear,180,2012-11-11 05:53:00
1:53 AM,55.0,32.0,42,30.25,10.0,South,9.2,-,N/A,,Clear,180,2012-11-11 06:53:00
2:53 AM,51.1,33.1,50,30.26,10.0,South,8.1,-,N/A,,Clear,170,2012-11-11 07:53:00
3:53 AM,51.1,33.1,50,30.27,10.0,South,8.1,-,N/A,,Clear,170,2012-11-11 08:53:00
4:53 AM,52.0,33.1,49,30.29,10.0,South,8.1,-,N/A,,Clear,170,2012-11-11 09:53:00
5:53 AM,51.1,33.1,50,30.31,10.0,South,9.2,-,N/A,,Clear,180,2012-11-11 10:53:00
6:53 AM,50.0,34.0,54,30.34,10.0,South,8.1,-,N/A,,Clear,180,2012-11-11 11:53:00
7:53 AM,48.0,36.0,63,30.37,8.0,South,9.2,-,N/A,,Clear,170,2012-11-11 12:53:00
8:53 AM,55.9,36.0,47,30.38,10.0,South,8.1,-,N/A,,Clear,180,2012-11-11 13:53:00
9:53 AM,61.0,36.0,39,30.38,10.0,South,9.2,-,N/A,,Clear,180,2012-11-11 14:53:00
10:53 AM,64.4,35.6,34,30.35,10.0,South,8.1,-,N/A,,Clear,190,2012-11-11 15:53:00
11:53 AM,69.1,35.1,29,30.33,10.0,SSW,10.4,-,N/A,,Clear,200,2012-11-11 16:53:00
12:53 PM,69.1,34.0,27,30.30,10.0,South,13.8,-,N/A,,Clear,170,2012-11-11 17:53:00
1:53 PM,70.0,34.0,27,30.27,10.0,SSE,11.5,-,N/A,,Clear,150,2012-11-11 18:53:00
2:53 PM,69.1,33.1,26,30.26,10.0,South,8.1,-,N/A,,Clear,170,2012-11-11 19:53:00
3:53 PM,69.1,32.0,25,30.26,10.0,SSE,5.8,-,N/A,,Clear,160,2012-11-11 20:53:00
4:53 PM,66.0,32.0,28,30.25,10.0,SE,5.8,-,N/A,,Clear,140,2012-11-11 21:53:00
5:53 PM,66.0,30.9,27,30.25,10.0,Calm,Calm,-,N/A,,Clear,0,2012-11-11 22:53:00
6:53 PM,64.0,32.0,30,30.26,10.0,SE,5.8,-,N/A,,Clear,140,2012-11-11 23:53:00
7:53 PM,61.0,33.1,35,30.25,10.0,SSE,6.9,-,N/A,,Clear,150,2012-11-12 00:53:00
8:53 PM,61.0,33.1,35,30.24,10.0,SSE,9.2,-,N/A,,Clear,150,2012-11-12 01:53:00
9:53 PM,57.9,33.1,39,30.24,10.0,SSE,6.9,-,N/A,,Clear,150,2012-11-12 02:53:00
10:53 PM,59.0,32.0,36,30.22,10.0,SSE,9.2,-,N/A,,Clear,160,2012-11-12 03:53:00
11:53 PM,61.0,32.0,34,30.22,10.0,South,10.4,-,N/A,,Clear,170,2012-11-12 04:53:00